Home > Weather > Clarksville > Past weeks

Flag for U.S.A. Weather for the Past 2 Weeks in Clarksville, Tennessee, U.S.A.

Now
15 °F

Sunny.


Feels Like: 8 °F
Forecast: 17 / 29 °F
Wind: 5 mph from Northwest

Location: Outlaw Field

Current Time: Feb 10, 2016 at 7:59:58 AM

Latest Report: Feb 10, 2016 at 6:52 AM


Visibility: 10 mi

Pressure: 30.18 "Hg

Humidity: 74%

Dew point: 8 °F

Location of ClarksvilleLocation

Historic Weather in Clarksville — Graph

°F

Clarksville Temperature Yesterday

Maximum temperature yesterday: 26 °F (at 12:52 AM)
Minimum temperature yesterday: 20 °F (at 10:52 PM)
Average temperature yesterday: 23 °F

High & Low Weather Summary for the Past Weeks

 TemperatureHumidityPressure
High71 °F (Jan 31, 1:52 PM)97% (Feb 2, 4:52 AM)30.48 "Hg (Feb 2, 4:52 AM)
Low14 °F (Feb 10, 5:52 AM)27% (Feb 6, 1:52 PM)29.58 "Hg (Feb 2, 7:52 PM)
Average41 °F66%30.04 "Hg
* Reported Jan 26 6:52 AM — Feb 10 6:52 AM, Clarksville, Weather by CustomWeather, © 2016

Note: Actual official high and low records may vary slightly from our data, if they occured in-between our weather recording intervals... More about our weather records

Advertising

Clarksville Weather History for the Previous 24 Hours

 ConditionsComfort  
Time TempWeatherWind HumidityBarometerVisibility
6:52 AM
Wed, Feb 10
15 °FSunny.5 mph74%30.18 "Hg10 mi
5:52 AM14 °FSunny.7 mph73%30.19 "Hg10 mi
4:52 AM17 °FOvercast.9 mph70%30.15 "Hg10 mi
3:52 AM20 °FOvercast.13 mph68%30.14 "Hg10 mi
2:52 AM20 °FLight snow. Ice fog.8 mph85%30.12 "Hg3 mi
1:52 AM20 °FLight snow. Ice fog.5 mph85%30.11 "Hg6 mi
12:52 AM20 °FOvercast.3 mph85%30.10 "Hg10 mi
11:52 PM
Tue, Feb 9
20 °FPassing clouds.No wind89%30.11 "Hg10 mi
10:52 PM20 °FLight snow. Ice fog.No wind89%30.12 "Hg4 mi
9:52 PM21 °FLight snow. Overcast.6 mph81%30.12 "Hg3 mi
8:52 PM21 °FOvercast.7 mph71%30.12 "Hg10 mi
7:52 PM21 °FOvercast.10 mph74%30.11 "Hg10 mi
6:52 PM21 °FOvercast.12 mph78%30.11 "Hg9 mi
5:52 PM22 °FLight snow. Mostly cloudy.9 mph82%30.08 "Hg5 mi
4:52 PM22 °FLight snow. Mostly cloudy.13 mph78%30.06 "Hg4 mi
4:04 PM23 °FLight snow. Ice fog.10 mph85%30.02 "Hg1 mi
2:52 PM24 °FCloudy.15 mph68%29.99 "Hg10 mi
1:52 PM25 °FMostly cloudy.14 mph63%29.97 "Hg10 mi
1:02 PM23 °FLight snow. Mostly cloudy.13 mph74%29.94 "Hg2 mi
12:52 PM23 °FLight snow. Mostly cloudy.12 mph78%29.96 "Hg1 mi
11:52 AM23 °FLight snow. Overcast.12 mph74%29.96 "Hg6 mi
10:52 AM23 °FMore clouds than sun.15 mph65%29.96 "Hg9 mi
8:52 AM23 °FLight snow. Ice fog.10 mph85%29.93 "Hg1 mi
7:52 AM23 °FLight snow. Mostly cloudy.9 mph81%29.91 "Hg2 mi
Weather by CustomWeather, © 2016

See weather overviewHow to use our weather pages